Time,TemperatureF,DewpointF,PressureIn,WindDirection,WindDirectionDegrees,WindSpeedMPH,WindSpeedGustMPH,Humidity,HourlyPrecipIn,Conditions,Clouds,dailyrainin,SoftwareType,DateUTC
2013-02-25 00:00:00,27.7,24.6,30.16,SSE,162,0.0,0.0,88,0.00,,,0.00,Wunderground v.1.15,2013-02-25 06:00:00,
2013-02-25 00:06:00,27.5,24.4,30.16,SSE,162,0.0,0.0,88,0.00,,,0.00,Wunderground v.1.15,2013-02-25 06:06:00,
2013-02-25 00:12:00,27.2,24.1,30.16,SSE,162,0.0,0.0,88,0.00,,,0.00,Wunderground v.1.15,2013-02-25 06:12:00,
2013-02-25 00:18:00,27.0,23.9,30.16,SSE,162,0.0,0.0,88,0.00,,,0.00,Wunderground v.1.15,2013-02-25 06:18:00,
2013-02-25 00:24:00,26.9,23.8,30.16,SSE,162,0.0,0.0,88,0.00,,,0.00,Wunderground v.1.15,2013-02-25 06:24:00,
2013-02-25 00:30:00,26.6,23.5,30.16,SSE,162,0.0,0.0,88,0.00,,,0.00,Wunderground v.1.15,2013-02-25 06:30:00,
2013-02-25 00:36:00,26.4,23.6,30.16,SSE,162,0.0,0.0,89,0.00,,,0.00,Wunderground v.1.15,2013-02-25 06:36:00,
2013-02-25 00:42:00,26.4,23.6,30.16,SSE,162,0.0,0.0,89,0.00,,,0.00,Wunderground v.1.15,2013-02-25 06:42:00,
2013-02-25 00:48:00,26.5,24.0,30.16,SSE,162,0.0,0.0,90,0.00,,,0.00,Wunderground v.1.15,2013-02-25 06:48:00,
2013-02-25 00:54:00,26.6,24.1,30.16,SSE,162,0.0,0.0,90,0.00,,,0.00,Wunderground v.1.15,2013-02-25 06:54:00,
2013-02-25 01:00:00,26.6,24.1,30.15,SSE,162,0.0,0.0,90,0.00,,,0.00,Wunderground v.1.15,2013-02-25 07:00:00,
2013-02-25 01:06:00,26.3,23.8,30.15,SSE,162,0.0,1.0,90,0.00,,,0.00,Wunderground v.1.15,2013-02-25 07:06:00,
2013-02-25 01:12:00,26.3,23.8,30.15,SSE,162,0.0,1.0,90,0.00,,,0.00,Wunderground v.1.15,2013-02-25 07:12:00,
2013-02-25 01:18:00,26.3,23.8,30.16,SSE,162,0.0,0.0,90,0.00,,,0.00,Wunderground v.1.15,2013-02-25 07:18:00,
2013-02-25 01:24:00,26.3,23.8,30.16,SSE,162,0.0,0.0,90,0.00,,,0.00,Wunderground v.1.15,2013-02-25 07:24:00,
2013-02-25 01:29:00,26.5,24.2,30.16,SSE,162,0.0,0.0,91,0.00,,,0.00,Wunderground v.1.15,2013-02-25 07:29:00,
2013-02-25 01:35:00,26.7,24.4,30.16,SSE,162,0.0,0.0,91,0.00,,,0.00,Wunderground v.1.15,2013-02-25 07:35:00,
2013-02-25 01:41:00,26.7,24.2,30.16,SSE,162,0.0,1.0,90,0.00,,,0.00,Wunderground v.1.15,2013-02-25 07:41:00,
2013-02-25 01:47:00,26.5,24.0,30.16,SSE,162,0.0,0.0,90,0.00,,,0.00,Wunderground v.1.15,2013-02-25 07:47:00,
2013-02-25 01:53:00,26.5,24.0,30.15,SSE,162,0.0,0.0,90,0.00,,,0.00,Wunderground v.1.15,2013-02-25 07:53:00,
2013-02-25 01:59:00,26.5,24.0,30.16,SSE,162,0.0,0.0,90,0.00,,,0.00,Wunderground v.1.15,2013-02-25 07:59:00,
2013-02-25 02:04:00,26.4,23.9,30.15,SSE,162,0.0,0.0,90,0.00,,,0.00,Wunderground v.1.15,2013-02-25 08:04:00,
2013-02-25 02:11:00,26.3,23.8,30.16,SSE,162,0.0,0.0,90,0.00,,,0.00,Wunderground v.1.15,2013-02-25 08:11:00,
2013-02-25 02:17:00,26.2,23.7,30.16,SSE,162,0.0,0.0,90,0.00,,,0.00,Wunderground v.1.15,2013-02-25 08:17:00,
2013-02-25 02:22:00,26.0,23.5,30.15,SSE,162,0.0,0.0,90,0.00,,,0.00,Wunderground v.1.15,2013-02-25 08:22:00,
2013-02-25 02:29:00,25.7,23.2,30.15,SSE,162,0.0,0.0,90,0.00,,,0.00,Wunderground v.1.15,2013-02-25 08:29:00,
2013-02-25 02:34:00,25.6,23.1,30.16,SSE,162,0.0,0.0,90,0.00,,,0.00,Wunderground v.1.15,2013-02-25 08:34:00,
2013-02-25 02:41:00,25.6,23.1,30.16,SSE,162,0.0,0.0,90,0.00,,,0.00,Wunderground v.1.15,2013-02-25 08:41:00,
2013-02-25 02:46:00,25.6,23.1,30.16,SSE,162,0.0,0.0,90,0.00,,,0.00,Wunderground v.1.15,2013-02-25 08:46:00,
2013-02-25 02:52:00,25.4,22.9,30.16,SSE,162,0.0,1.0,90,0.00,,,0.00,Wunderground v.1.15,2013-02-25 08:52:00,
2013-02-25 02:59:00,25.3,22.8,30.15,SSE,162,0.0,0.0,90,0.00,,,0.00,Wunderground v.1.15,2013-02-25 08:59:00,
2013-02-25 03:04:00,25.2,22.7,30.15,SSE,162,0.0,1.0,90,0.00,,,0.00,Wunderground v.1.15,2013-02-25 09:04:00,
2013-02-25 03:11:00,25.1,22.6,30.14,SSE,162,0.0,1.0,90,0.00,,,0.00,Wunderground v.1.15,2013-02-25 09:11:00,
2013-02-25 03:16:00,25.0,22.2,30.15,SSE,162,1.0,1.0,89,0.00,,,0.00,Wunderground v.1.15,2013-02-25 09:16:00,
2013-02-25 03:22:00,24.9,22.1,30.15,SSE,162,0.0,1.0,89,0.00,,,0.00,Wunderground v.1.15,2013-02-25 09:22:00,
2013-02-25 03:28:00,24.7,21.9,30.15,SSE,162,0.0,0.0,89,0.00,,,0.00,Wunderground v.1.15,2013-02-25 09:28:00,
2013-02-25 03:34:00,24.6,21.8,30.15,SSE,162,0.0,0.0,89,0.00,,,0.00,Wunderground v.1.15,2013-02-25 09:34:00,
2013-02-25 03:41:00,24.5,21.7,30.15,SSE,162,0.0,0.0,89,0.00,,,0.00,Wunderground v.1.15,2013-02-25 09:41:00,
2013-02-25 03:46:00,24.5,22.0,30.15,SSE,162,0.0,0.0,90,0.00,,,0.00,Wunderground v.1.15,2013-02-25 09:46:00,
2013-02-25 03:52:00,24.4,21.9,30.15,SSE,162,0.0,0.0,90,0.00,,,0.00,Wunderground v.1.15,2013-02-25 09:52:00,
2013-02-25 03:58:00,24.4,21.6,30.15,SSE,162,0.0,1.0,89,0.00,,,0.00,Wunderground v.1.15,2013-02-25 09:58:00,
2013-02-25 04:04:00,24.3,21.5,30.15,SSE,162,0.0,1.0,89,0.00,,,0.00,Wunderground v.1.15,2013-02-25 10:04:00,
2013-02-25 04:10:00,24.2,21.4,30.15,SSE,162,0.0,0.0,89,0.00,,,0.00,Wunderground v.1.15,2013-02-25 10:10:00,
2013-02-25 04:16:00,24.1,21.3,30.15,SSE,162,0.0,0.0,89,0.00,,,0.00,Wunderground v.1.15,2013-02-25 10:16:00,
2013-02-25 04:22:00,24.1,21.3,30.16,SSE,162,0.0,0.0,89,0.00,,,0.00,Wunderground v.1.15,2013-02-25 10:22:00,
2013-02-25 04:28:00,24.0,21.2,30.16,SSE,162,0.0,0.0,89,0.00,,,0.00,Wunderground v.1.15,2013-02-25 10:28:00,
2013-02-25 04:34:00,24.0,21.2,30.16,SSE,162,0.0,0.0,89,0.00,,,0.00,Wunderground v.1.15,2013-02-25 10:34:00,
2013-02-25 04:40:00,24.1,21.3,30.16,SSE,162,1.0,1.0,89,0.00,,,0.00,Wunderground v.1.15,2013-02-25 10:40:00,
2013-02-25 04:46:00,24.0,21.2,30.17,SSE,162,1.0,1.0,89,0.00,,,0.00,Wunderground v.1.15,2013-02-25 10:46:00,
2013-02-25 04:52:00,24.0,21.2,30.17,SSE,162,0.0,1.0,89,0.00,,,0.00,Wunderground v.1.15,2013-02-25 10:52:00,
2013-02-25 04:58:00,24.0,21.2,30.17,SSE,162,0.0,0.0,89,0.00,,,0.00,Wunderground v.1.15,2013-02-25 10:58:00,
2013-02-25 05:04:00,23.9,21.1,30.17,SSE,162,0.0,0.0,89,0.00,,,0.00,Wunderground v.1.15,2013-02-25 11:04:00,
2013-02-25 05:10:00,23.8,21.0,30.17,SSE,162,0.0,0.0,89,0.00,,,0.00,Wunderground v.1.15,2013-02-25 11:10:00,
2013-02-25 05:16:00,23.6,20.8,30.17,SSE,162,0.0,0.0,89,0.00,,,0.00,Wunderground v.1.15,2013-02-25 11:16:00,
2013-02-25 05:22:00,23.5,20.7,30.17,SSE,162,0.0,0.0,89,0.00,,,0.00,Wunderground v.1.15,2013-02-25 11:22:00,
2013-02-25 05:28:00,23.3,20.5,30.17,SSE,162,0.0,1.0,89,0.00,,,0.00,Wunderground v.1.15,2013-02-25 11:28:00,
2013-02-25 05:34:00,23.3,20.8,30.18,SSE,162,1.0,1.0,90,0.00,,,0.00,Wunderground v.1.15,2013-02-25 11:34:00,
2013-02-25 05:40:00,23.3,20.8,30.19,SSE,162,0.0,1.0,90,0.00,,,0.00,Wunderground v.1.15,2013-02-25 11:40:00,
2013-02-25 05:46:00,23.3,20.8,30.19,SSE,162,0.0,0.0,90,0.00,,,0.00,Wunderground v.1.15,2013-02-25 11:46:00,
2013-02-25 05:52:00,23.3,20.8,30.18,SSE,162,0.0,0.0,90,0.00,,,0.00,Wunderground v.1.15,2013-02-25 11:52:00,
2013-02-25 05:58:00,23.4,21.2,30.18,SSE,162,1.0,1.0,91,0.00,,,0.00,Wunderground v.1.15,2013-02-25 11:58:00,
2013-02-25 06:04:00,23.2,20.7,30.17,SSE,162,1.0,1.0,90,0.00,,,0.00,Wunderground v.1.15,2013-02-25 12:04:00,
2013-02-25 06:10:00,23.1,20.6,30.17,SSE,162,1.0,1.0,90,0.00,,,0.00,Wunderground v.1.15,2013-02-25 12:10:00,
2013-02-25 06:16:00,23.2,20.7,30.17,SSE,162,1.0,2.0,90,0.00,,,0.00,Wunderground v.1.15,2013-02-25 12:16:00,
2013-02-25 06:22:00,23.3,21.1,30.17,SSE,162,1.0,2.0,91,0.00,,,0.00,Wunderground v.1.15,2013-02-25 12:22:00,
2013-02-25 06:27:00,23.5,21.3,30.17,SSE,162,1.0,1.0,91,0.00,,,0.00,Wunderground v.1.15,2013-02-25 12:27:00,
2013-02-25 06:33:00,23.7,21.5,30.16,SSE,162,1.0,2.0,91,0.00,,,0.00,Wunderground v.1.15,2013-02-25 12:33:00,
2013-02-25 06:39:00,23.9,21.7,30.16,SSE,162,2.0,2.0,91,0.00,,,0.00,Wunderground v.1.15,2013-02-25 12:39:00,
2013-02-25 06:45:00,24.1,22.1,30.16,SSE,162,2.0,2.0,92,0.00,,,0.00,Wunderground v.1.15,2013-02-25 12:45:00,
2013-02-25 06:51:00,24.2,22.2,30.16,SSE,162,2.0,2.0,92,0.00,,,0.00,Wunderground v.1.15,2013-02-25 12:51:00,
2013-02-25 06:57:00,24.5,22.5,30.16,SSE,162,2.0,2.0,92,0.00,,,0.00,Wunderground v.1.15,2013-02-25 12:57:00,
2013-02-25 07:03:00,24.9,22.9,30.16,SSE,162,2.0,2.0,92,0.00,,,0.00,Wunderground v.1.15,2013-02-25 13:03:00,
2013-02-25 07:09:00,25.3,23.3,30.15,SSE,162,2.0,2.0,92,0.00,,,0.00,Wunderground v.1.15,2013-02-25 13:09:00,
2013-02-25 07:15:00,25.7,23.7,30.16,SSE,162,3.0,3.0,92,0.00,,,0.00,Wunderground v.1.15,2013-02-25 13:15:00,
2013-02-25 07:21:00,25.8,23.8,30.16,SSE,162,3.0,3.0,92,0.00,,,0.00,Wunderground v.1.15,2013-02-25 13:21:00,
2013-02-25 07:26:00,25.8,23.5,30.16,SSE,162,3.0,3.0,91,0.00,,,0.00,Wunderground v.1.15,2013-02-25 13:26:00,
2013-02-25 07:32:00,25.8,23.5,30.16,ENE,77,3.0,4.0,91,0.00,,,0.00,Wunderground v.1.15,2013-02-25 13:32:00,
2013-02-25 07:38:00,26.0,23.7,30.16,ENE,77,3.0,3.0,91,0.00,,,0.00,Wunderground v.1.15,2013-02-25 13:38:00,
2013-02-25 07:45:00,26.5,24.2,30.16,ENE,77,3.0,4.0,91,0.00,,,0.00,Wunderground v.1.15,2013-02-25 13:45:00,
2013-02-25 07:51:00,26.9,24.4,30.16,ENE,77,3.0,4.0,90,0.00,,,0.00,Wunderground v.1.15,2013-02-25 13:51:00,
2013-02-25 07:56:00,27.3,24.8,30.17,ENE,77,3.0,3.0,90,0.00,,,0.00,Wunderground v.1.15,2013-02-25 13:56:00,
2013-02-25 08:02:00,27.8,25.0,30.17,ENE,77,3.0,3.0,89,0.00,,,0.00,Wunderground v.1.15,2013-02-25 14:02:00,
2013-02-25 08:09:00,28.3,25.5,30.17,ENE,77,3.0,4.0,89,0.00,,,0.00,Wunderground v.1.15,2013-02-25 14:09:00,
2013-02-25 08:15:00,28.7,25.6,30.17,ENE,77,3.0,4.0,88,0.00,,,0.00,Wunderground v.1.15,2013-02-25 14:15:00,
2013-02-25 08:21:00,29.2,26.1,30.17,ENE,77,3.0,4.0,88,0.00,,,0.00,Wunderground v.1.15,2013-02-25 14:21:00,
2013-02-25 08:26:00,29.7,26.6,30.17,ENE,77,3.0,3.0,88,0.00,,,0.01,Wunderground v.1.15,2013-02-25 14:26:00,
2013-02-25 08:32:00,30.2,26.8,30.17,ENE,77,3.0,5.0,87,0.00,,,0.01,Wunderground v.1.15,2013-02-25 14:32:00,
2013-02-25 08:38:00,30.6,26.9,30.17,ENE,78,4.0,5.0,86,0.00,,,0.01,Wunderground v.1.15,2013-02-25 14:38:00,
2013-02-25 08:44:00,30.9,27.2,30.17,ENE,78,4.0,6.0,86,0.00,,,0.01,Wunderground v.1.15,2013-02-25 14:44:00,
2013-02-25 08:51:00,31.2,27.2,30.17,East,79,4.0,5.0,85,0.00,,,0.01,Wunderground v.1.15,2013-02-25 14:51:00,
2013-02-25 08:56:00,31.6,27.9,30.17,ENE,78,4.0,5.0,86,0.00,,,0.01,Wunderground v.1.15,2013-02-25 14:56:00,
2013-02-25 09:02:00,31.9,27.9,30.17,East,79,4.0,5.0,85,0.00,,,0.01,Wunderground v.1.15,2013-02-25 15:02:00,
2013-02-25 09:08:00,32.3,28.3,30.17,ENE,78,4.0,4.0,85,0.00,,,0.01,Wunderground v.1.15,2013-02-25 15:08:00,
2013-02-25 09:14:00,32.6,28.3,30.16,ENE,78,4.0,5.0,84,0.00,,,0.01,Wunderground v.1.15,2013-02-25 15:14:00,
2013-02-25 09:20:00,33.1,28.8,30.16,NE,50,4.0,5.0,84,0.00,,,0.01,Wunderground v.1.15,2013-02-25 15:20:00,
2013-02-25 09:26:00,33.3,28.7,30.16,ENE,77,4.0,4.0,83,0.00,,,0.01,Wunderground v.1.15,2013-02-25 15:26:00,
2013-02-25 09:32:00,33.5,28.6,30.16,NE,51,5.0,6.0,82,0.00,,,0.01,Wunderground v.1.15,2013-02-25 15:32:00,
2013-02-25 09:38:00,34.0,29.1,30.15,ENE,61,5.0,5.0,82,0.00,,,0.01,Wunderground v.1.15,2013-02-25 15:38:00,
2013-02-25 09:44:00,34.5,29.3,30.15,ENE,66,5.0,6.0,81,0.00,,,0.01,Wunderground v.1.15,2013-02-25 15:44:00,
2013-02-25 09:50:00,35.0,29.5,30.15,ENE,62,5.0,5.0,80,0.00,,,0.01,Wunderground v.1.15,2013-02-25 15:50:00,
2013-02-25 09:56:00,35.4,29.5,30.14,NE,51,5.0,5.0,79,0.00,,,0.01,Wunderground v.1.15,2013-02-25 15:56:00,
2013-02-25 10:02:00,35.8,29.9,30.14,East,80,5.0,6.0,79,0.00,,,0.01,Wunderground v.1.15,2013-02-25 16:02:00,
2013-02-25 10:08:00,36.3,29.8,30.14,ENE,60,5.0,6.0,77,0.00,,,0.01,Wunderground v.1.15,2013-02-25 16:08:00,
2013-02-25 10:14:00,36.8,30.6,30.14,NE,56,5.0,6.0,78,0.00,,,0.01,Wunderground v.1.15,2013-02-25 16:14:00,
2013-02-25 10:20:00,37.1,30.2,30.14,ENE,71,6.0,7.0,76,0.00,,,0.01,Wunderground v.1.15,2013-02-25 16:20:00,
2013-02-25 10:26:00,37.2,30.3,30.15,East,80,6.0,6.0,76,0.00,,,0.01,Wunderground v.1.15,2013-02-25 16:26:00,
2013-02-25 10:32:00,37.6,30.7,30.15,East,82,6.0,7.0,76,0.00,,,0.01,Wunderground v.1.15,2013-02-25 16:32:00,
2013-02-25 10:38:00,38.4,30.8,30.15,ENE,78,6.0,6.0,74,0.00,,,0.01,Wunderground v.1.15,2013-02-25 16:38:00,
2013-02-25 10:44:00,39.1,31.2,30.16,ESE,102,6.0,6.0,73,0.00,,,0.01,Wunderground v.1.15,2013-02-25 16:44:00,
2013-02-25 10:50:00,39.5,29.1,30.16,East,101,6.0,9.0,66,0.00,,,0.01,Wunderground v.1.15,2013-02-25 16:50:00,
2013-02-25 10:56:00,39.6,29.9,30.16,SE,144,7.0,7.0,68,0.00,,,0.01,Wunderground v.1.15,2013-02-25 16:56:00,
2013-02-25 11:02:00,39.8,30.8,30.15,East,82,7.0,8.0,70,0.00,,,0.01,Wunderground v.1.15,2013-02-25 17:02:00,
2013-02-25 11:08:00,40.0,30.6,30.15,SSE,149,7.0,7.0,69,0.00,,,0.01,Wunderground v.1.15,2013-02-25 17:08:00,
2013-02-25 11:14:00,40.2,30.8,30.15,SE,125,6.0,8.0,69,0.00,,,0.01,Wunderground v.1.15,2013-02-25 17:14:00,
2013-02-25 11:20:00,40.7,31.7,30.15,SE,125,6.0,7.0,70,0.00,,,0.01,Wunderground v.1.15,2013-02-25 17:20:00,
2013-02-25 11:27:00,40.8,31.4,30.15,ESE,113,7.0,7.0,69,0.00,,,0.01,Wunderground v.1.15,2013-02-25 17:27:00,
2013-02-25 11:33:00,41.2,31.8,30.15,ESE,119,6.0,7.0,69,0.00,,,0.01,Wunderground v.1.15,2013-02-25 17:33:00,
2013-02-25 11:39:00,41.6,31.4,30.15,ESE,109,5.0,6.0,67,0.00,,,0.01,Wunderground v.1.15,2013-02-25 17:39:00,
2013-02-25 11:45:00,41.7,31.5,30.15,SSE,151,5.0,8.0,67,0.00,,,0.01,Wunderground v.1.15,2013-02-25 17:45:00,
2013-02-25 11:51:00,41.7,31.9,30.14,SSE,151,6.0,8.0,68,0.00,,,0.01,Wunderground v.1.15,2013-02-25 17:51:00,
2013-02-25 11:56:00,41.4,32.3,30.14,ESE,119,6.0,6.0,70,0.00,,,0.01,Wunderground v.1.15,2013-02-25 17:56:00,
2013-02-25 12:03:00,41.6,31.8,30.13,ESE,114,6.0,7.0,68,0.00,,,0.01,Wunderground v.1.15,2013-02-25 18:03:00,
2013-02-25 12:09:00,41.8,32.0,30.13,SE,142,6.0,7.0,68,0.00,,,0.01,Wunderground v.1.15,2013-02-25 18:09:00,
2013-02-25 12:15:00,41.6,32.2,30.13,SE,137,7.0,8.0,69,0.00,,,0.01,Wunderground v.1.15,2013-02-25 18:15:00,
2013-02-25 12:21:00,41.8,32.0,30.12,SSE,151,7.0,9.0,68,0.00,,,0.01,Wunderground v.1.15,2013-02-25 18:21:00,
2013-02-25 12:27:00,41.8,32.4,30.12,ESE,115,8.0,8.0,69,0.00,,,0.01,Wunderground v.1.15,2013-02-25 18:27:00,
2013-02-25 12:33:00,42.0,32.6,30.12,SE,126,7.0,8.0,69,0.00,,,0.01,Wunderground v.1.15,2013-02-25 18:33:00,
2013-02-25 12:38:00,42.3,33.2,30.12,SSE,152,7.0,11.0,70,0.00,,,0.01,Wunderground v.1.15,2013-02-25 18:38:00,
2013-02-25 12:44:00,42.3,32.8,30.12,ESE,104,7.0,11.0,69,0.00,,,0.01,Wunderground v.1.15,2013-02-25 18:44:00,
2013-02-25 12:51:00,42.5,33.4,30.11,ESE,110,7.0,8.0,70,0.00,,,0.01,Wunderground v.1.15,2013-02-25 18:51:00,
2013-02-25 12:56:00,43.0,33.5,30.11,SE,139,7.0,10.0,69,0.00,,,0.01,Wunderground v.1.15,2013-02-25 18:56:00,
2013-02-25 13:02:00,42.8,33.0,30.10,ESE,120,7.0,10.0,68,0.00,,,0.01,Wunderground v.1.15,2013-02-25 19:02:00,
2013-02-25 13:08:00,43.0,32.8,30.11,ESE,123,7.0,8.0,67,0.00,,,0.01,Wunderground v.1.15,2013-02-25 19:08:00,
2013-02-25 13:14:00,43.0,32.4,30.10,ESE,120,7.0,9.0,66,0.00,,,0.01,Wunderground v.1.15,2013-02-25 19:14:00,
2013-02-25 13:21:00,43.2,32.6,30.10,ESE,121,7.0,8.0,66,0.00,,,0.01,Wunderground v.1.15,2013-02-25 19:21:00,
2013-02-25 13:26:00,43.5,32.9,30.09,ENE,71,6.0,7.0,66,0.00,,,0.01,Wunderground v.1.15,2013-02-25 19:26:00,
2013-02-25 13:32:00,43.4,31.6,30.09,ENE,71,6.0,11.0,63,0.00,,,0.01,Wunderground v.1.15,2013-02-25 19:32:00,
2013-02-25 13:38:00,43.1,31.7,30.09,East,87,7.0,9.0,64,0.00,,,0.01,Wunderground v.1.15,2013-02-25 19:38:00,
2013-02-25 13:44:00,42.9,31.2,30.10,NE,55,6.0,9.0,63,0.00,,,0.01,Wunderground v.1.15,2013-02-25 19:44:00,
2013-02-25 13:51:00,42.7,31.0,30.09,SE,130,6.0,7.0,63,0.00,,,0.01,Wunderground v.1.15,2013-02-25 19:51:00,
2013-02-25 13:56:00,43.1,31.0,30.09,ESE,121,6.0,6.0,62,0.00,,,0.01,Wunderground v.1.15,2013-02-25 19:56:00,
2013-02-25 14:02:00,43.1,31.4,30.09,SE,134,7.0,8.0,63,0.00,,,0.01,Wunderground v.1.15,2013-02-25 20:02:00,
2013-02-25 14:08:00,43.1,31.4,30.09,SE,127,7.0,7.0,63,0.00,,,0.01,Wunderground v.1.15,2013-02-25 20:08:00,
2013-02-25 14:14:00,43.4,31.6,30.09,ENE,71,5.0,7.0,63,0.00,,,0.01,Wunderground v.1.15,2013-02-25 20:14:00,
2013-02-25 14:20:00,43.2,31.4,30.09,ENE,66,5.0,6.0,63,0.00,,,0.01,Wunderground v.1.15,2013-02-25 20:20:00,
2013-02-25 14:26:00,43.0,31.6,30.09,ESE,103,6.0,6.0,64,0.00,,,0.01,Wunderground v.1.15,2013-02-25 20:26:00,
2013-02-25 14:32:00,43.4,31.6,30.10,ESE,110,6.0,10.0,63,0.00,,,0.01,Wunderground v.1.15,2013-02-25 20:32:00,
2013-02-25 14:38:00,43.8,31.2,30.10,SE,138,6.0,7.0,61,0.00,,,0.01,Wunderground v.1.15,2013-02-25 20:38:00,
2013-02-25 14:44:00,43.8,31.2,30.09,East,88,5.0,7.0,61,0.00,,,0.01,Wunderground v.1.15,2013-02-25 20:44:00,
2013-02-25 14:50:00,43.6,31.4,30.09,ENE,77,5.0,7.0,62,0.00,,,0.01,Wunderground v.1.15,2013-02-25 20:50:00,
2013-02-25 14:56:00,43.3,31.5,30.08,East,80,5.0,5.0,63,0.00,,,0.01,Wunderground v.1.15,2013-02-25 20:56:00,
2013-02-25 15:02:00,42.7,31.4,30.08,ENE,67,6.0,7.0,64,0.00,,,0.01,Wunderground v.1.15,2013-02-25 21:02:00,
2013-02-25 15:08:00,42.5,31.6,30.07,NE,47,5.0,6.0,65,0.00,,,0.01,Wunderground v.1.15,2013-02-25 21:08:00,
2013-02-25 15:14:00,42.3,32.8,30.07,NE,55,5.0,6.0,69,0.00,,,0.01,Wunderground v.1.15,2013-02-25 21:14:00,
2013-02-25 15:20:00,42.0,32.6,30.06,ENE,63,5.0,6.0,69,0.00,,,0.01,Wunderground v.1.15,2013-02-25 21:20:00,
2013-02-25 15:26:00,41.8,32.4,30.05,NE,55,6.0,6.0,69,0.00,,,0.01,Wunderground v.1.15,2013-02-25 21:26:00,
2013-02-25 15:32:00,41.7,32.6,30.05,NE,49,6.0,7.0,70,0.00,,,0.01,Wunderground v.1.15,2013-02-25 21:32:00,
2013-02-25 15:38:00,41.4,32.3,30.05,ENE,74,7.0,7.0,70,0.00,,,0.01,Wunderground v.1.15,2013-02-25 21:38:00,
2013-02-25 15:44:00,41.3,32.2,30.06,ENE,61,6.0,8.0,70,0.00,,,0.01,Wunderground v.1.15,2013-02-25 21:44:00,
2013-02-25 15:50:00,41.1,31.7,30.05,East,80,7.0,8.0,69,0.00,,,0.01,Wunderground v.1.15,2013-02-25 21:50:00,
2013-02-25 15:56:00,40.9,31.9,30.05,ENE,59,7.0,8.0,70,0.00,,,0.01,Wunderground v.1.15,2013-02-25 21:56:00,
2013-02-25 16:02:00,40.8,32.1,30.05,ENE,57,7.0,8.0,71,0.00,,,0.01,Wunderground v.1.15,2013-02-25 22:02:00,
2013-02-25 16:08:00,40.6,31.9,30.05,NE,53,6.0,6.0,71,0.00,,,0.01,Wunderground v.1.15,2013-02-25 22:08:00,
2013-02-25 16:14:00,40.6,31.6,30.05,ENE,70,6.0,7.0,70,0.00,,,0.01,Wunderground v.1.15,2013-02-25 22:14:00,
2013-02-25 16:20:00,40.4,31.7,30.04,ENE,76,6.0,7.0,71,0.00,,,0.01,Wunderground v.1.15,2013-02-25 22:20:00,
2013-02-25 16:27:00,40.2,31.5,30.04,ENE,57,6.0,6.0,71,0.00,,,0.01,Wunderground v.1.15,2013-02-25 22:27:00,
2013-02-25 16:33:00,40.1,31.8,30.05,NE,46,6.0,6.0,72,0.00,,,0.01,Wunderground v.1.15,2013-02-25 22:33:00,
2013-02-25 16:39:00,39.9,31.9,30.05,NE,45,5.0,7.0,73,0.00,,,0.01,Wunderground v.1.15,2013-02-25 22:39:00,
2013-02-25 16:45:00,39.7,32.1,30.04,NE,46,5.0,7.0,74,0.00,,,0.01,Wunderground v.1.15,2013-02-25 22:45:00,
2013-02-25 16:51:00,39.6,32.0,30.04,NE,51,5.0,6.0,74,0.00,,,0.01,Wunderground v.1.15,2013-02-25 22:51:00,
2013-02-25 16:57:00,39.5,32.2,30.04,NE,46,5.0,5.0,75,0.00,,,0.01,Wunderground v.1.15,2013-02-25 22:57:00,
2013-02-25 17:03:00,39.2,31.9,30.04,East,92,5.0,8.0,75,0.00,,,0.01,Wunderground v.1.15,2013-02-25 23:03:00,
2013-02-25 17:09:00,39.2,31.9,30.04,NE,35,6.0,7.0,75,0.00,,,0.01,Wunderground v.1.15,2013-02-25 23:09:00,
2013-02-25 17:14:00,38.9,32.0,30.04,NE,49,6.0,7.0,76,0.00,,,0.01,Wunderground v.1.15,2013-02-25 23:14:00,
2013-02-25 17:21:00,38.7,32.1,30.04,ENE,65,6.0,7.0,77,0.00,,,0.01,Wunderground v.1.15,2013-02-25 23:21:00,
2013-02-25 17:27:00,38.4,32.1,30.03,NE,43,6.0,8.0,78,0.00,,,0.01,Wunderground v.1.15,2013-02-25 23:27:00,
2013-02-25 17:32:00,38.3,32.0,30.03,ENE,63,6.0,8.0,78,0.00,,,0.01,Wunderground v.1.15,2013-02-25 23:32:00,
2013-02-25 17:39:00,38.0,32.1,30.03,NE,55,6.0,7.0,79,0.00,,,0.01,Wunderground v.1.15,2013-02-25 23:39:00,
2013-02-25 17:44:00,37.8,31.6,30.03,ENE,63,6.0,7.0,78,0.00,,,0.01,Wunderground v.1.15,2013-02-25 23:44:00,
2013-02-25 17:51:00,37.7,31.5,30.02,NE,49,6.0,7.0,78,0.00,,,0.01,Wunderground v.1.15,2013-02-25 23:51:00,
2013-02-25 17:56:00,37.6,31.4,30.02,NE,43,6.0,6.0,78,0.00,,,0.01,Wunderground v.1.15,2013-02-25 23:56:00,
2013-02-25 18:02:00,37.5,31.3,30.02,ENE,67,6.0,6.0,78,0.00,,,0.01,Wunderground v.1.15,2013-02-26 00:02:00,
2013-02-25 18:08:00,37.5,30.9,30.03,NE,53,6.0,6.0,77,0.00,,,0.01,Wunderground v.1.15,2013-02-26 00:08:00,
2013-02-25 18:14:00,37.6,31.0,30.02,ENE,57,5.0,6.0,77,0.00,,,0.01,Wunderground v.1.15,2013-02-26 00:14:00,
2013-02-25 18:21:00,37.4,31.2,30.01,NE,43,5.0,7.0,78,0.00,,,0.01,Wunderground v.1.15,2013-02-26 00:21:00,
2013-02-25 18:26:00,37.3,31.1,30.01,ENE,58,6.0,6.0,78,0.00,,,0.01,Wunderground v.1.15,2013-02-26 00:26:00,
2013-02-25 18:32:00,37.2,31.0,30.02,ENE,67,6.0,6.0,78,0.00,,,0.01,Wunderground v.1.15,2013-02-26 00:32:00,
2013-02-25 18:38:00,37.0,30.8,30.01,NE,42,5.0,8.0,78,0.00,,,0.01,Wunderground v.1.15,2013-02-26 00:38:00,
2013-02-25 18:44:00,36.9,30.7,30.01,NE,45,5.0,8.0,78,0.00,,,0.01,Wunderground v.1.15,2013-02-26 00:44:00,
2013-02-25 18:50:00,36.7,30.5,30.01,NE,40,5.0,8.0,78,0.00,,,0.01,Wunderground v.1.15,2013-02-26 00:50:00,
2013-02-25 18:56:00,36.7,30.5,30.01,NE,37,5.0,5.0,78,0.00,,,0.01,Wunderground v.1.15,2013-02-26 00:56:00,
2013-02-25 19:02:00,36.5,30.6,30.01,NE,37,4.0,5.0,79,0.00,,,0.01,Wunderground v.1.15,2013-02-26 01:02:00,
2013-02-25 19:08:00,36.4,30.5,30.01,ENE,61,3.0,5.0,79,0.00,,,0.01,Wunderground v.1.15,2013-02-26 01:08:00,
2013-02-25 19:14:00,36.2,30.3,30.00,NE,46,4.0,5.0,79,0.00,,,0.01,Wunderground v.1.15,2013-02-26 01:14:00,
2013-02-25 19:20:00,36.0,30.4,29.99,NE,55,6.0,8.0,80,0.00,,,0.01,Wunderground v.1.15,2013-02-26 01:20:00,
2013-02-25 19:26:00,35.9,30.6,30.00,NNE,27,6.0,6.0,81,0.00,,,0.01,Wunderground v.1.15,2013-02-26 01:26:00,
2013-02-25 19:32:00,35.8,30.5,30.00,NE,55,6.0,6.0,81,0.00,,,0.01,Wunderground v.1.15,2013-02-26 01:32:00,
2013-02-25 19:38:00,35.7,30.4,30.00,NNE,30,6.0,6.0,81,0.00,,,0.01,Wunderground v.1.15,2013-02-26 01:38:00,
2013-02-25 19:44:00,35.7,30.4,30.01,ENE,69,6.0,8.0,81,0.00,,,0.01,Wunderground v.1.15,2013-02-26 01:44:00,
2013-02-25 19:50:00,35.7,30.4,30.01,NE,44,5.0,6.0,81,0.00,,,0.01,Wunderground v.1.15,2013-02-26 01:50:00,
2013-02-25 19:56:00,35.7,30.4,30.01,ENE,70,6.0,6.0,81,0.00,,,0.01,Wunderground v.1.15,2013-02-26 01:56:00,
2013-02-25 20:02:00,35.7,30.4,30.01,NE,56,6.0,7.0,81,0.00,,,0.01,Wunderground v.1.15,2013-02-26 02:02:00,
2013-02-25 20:08:00,35.7,30.4,30.01,ENE,74,6.0,9.0,81,0.00,,,0.01,Wunderground v.1.15,2013-02-26 02:08:00,
2013-02-25 20:14:00,35.8,30.2,30.00,NE,51,7.0,10.0,80,0.00,,,0.01,Wunderground v.1.15,2013-02-26 02:14:00,
2013-02-25 20:20:00,35.7,30.1,30.01,NE,36,7.0,10.0,80,0.00,,,0.01,Wunderground v.1.15,2013-02-26 02:20:00,
2013-02-25 20:26:00,35.8,30.2,30.01,ENE,69,8.0,8.0,80,0.00,,,0.01,Wunderground v.1.15,2013-02-26 02:26:00,
2013-02-25 20:32:00,35.7,30.1,30.01,ENE,77,8.0,9.0,80,0.00,,,0.01,Wunderground v.1.15,2013-02-26 02:32:00,
2013-02-25 20:38:00,35.6,30.0,30.01,ENE,66,7.0,7.0,80,0.00,,,0.01,Wunderground v.1.15,2013-02-26 02:38:00,
2013-02-25 20:44:00,35.6,29.7,30.01,NE,55,8.0,11.0,79,0.00,,,0.01,Wunderground v.1.15,2013-02-26 02:44:00,
2013-02-25 20:50:00,35.6,29.4,30.01,NE,41,8.0,10.0,78,0.00,,,0.01,Wunderground v.1.15,2013-02-26 02:50:00,
2013-02-25 20:56:00,35.8,29.3,30.01,NE,36,9.0,13.0,77,0.00,,,0.01,Wunderground v.1.15,2013-02-26 02:56:00,
2013-02-25 21:02:00,35.9,29.4,30.01,NE,36,10.0,13.0,77,0.00,,,0.01,Wunderground v.1.15,2013-02-26 03:02:00,
2013-02-25 21:08:00,35.9,29.4,30.01,East,93,10.0,10.0,77,0.00,,,0.01,Wunderground v.1.15,2013-02-26 03:08:00,
2013-02-25 21:14:00,35.9,29.4,30.02,NE,54,9.0,10.0,77,0.00,,,0.01,Wunderground v.1.15,2013-02-26 03:14:00,
2013-02-25 21:20:00,35.9,29.4,30.02,East,85,8.0,10.0,77,0.00,,,0.01,Wunderground v.1.15,2013-02-26 03:20:00,
2013-02-25 21:27:00,35.9,29.4,30.02,NE,40,8.0,8.0,77,0.00,,,0.01,Wunderground v.1.15,2013-02-26 03:27:00,
2013-02-25 21:33:00,35.8,29.3,30.03,ENE,75,8.0,8.0,77,0.00,,,0.01,Wunderground v.1.15,2013-02-26 03:33:00,
2013-02-25 21:39:00,35.7,29.5,30.03,East,92,7.0,9.0,78,0.00,,,0.01,Wunderground v.1.15,2013-02-26 03:39:00,
2013-02-25 21:45:00,35.6,29.4,30.03,ENE,64,7.0,9.0,78,0.00,,,0.01,Wunderground v.1.15,2013-02-26 03:45:00,
2013-02-25 21:51:00,35.6,29.4,30.02,ENE,64,8.0,8.0,78,0.00,,,0.01,Wunderground v.1.15,2013-02-26 03:51:00,
2013-02-25 21:57:00,35.6,29.4,30.01,ENE,65,8.0,8.0,78,0.00,,,0.01,Wunderground v.1.15,2013-02-26 03:57:00,
2013-02-25 22:03:00,35.5,29.6,30.01,ENE,61,8.0,9.0,79,0.00,,,0.01,Wunderground v.1.15,2013-02-26 04:03:00,
2013-02-25 22:09:00,35.4,29.5,30.00,ENE,69,8.0,9.0,79,0.00,,,0.01,Wunderground v.1.15,2013-02-26 04:09:00,
2013-02-25 22:15:00,35.4,29.5,30.00,ENE,61,9.0,11.0,79,0.00,,,0.01,Wunderground v.1.15,2013-02-26 04:15:00,
2013-02-25 22:21:00,35.3,29.4,29.99,NE,50,9.0,12.0,79,0.00,,,0.01,Wunderground v.1.15,2013-02-26 04:21:00,
2013-02-25 22:26:00,35.3,29.4,29.99,NE,46,9.0,9.0,79,0.00,,,0.01,Wunderground v.1.15,2013-02-26 04:26:00,
2013-02-25 22:33:00,35.2,29.6,29.99,ENE,76,8.0,9.0,80,0.00,,,0.01,Wunderground v.1.15,2013-02-26 04:33:00,
2013-02-25 22:39:00,35.2,29.6,29.99,ENE,62,7.0,8.0,80,0.00,,,0.01,Wunderground v.1.15,2013-02-26 04:39:00,
2013-02-25 22:45:00,35.2,29.6,29.98,ENE,59,7.0,12.0,80,0.00,,,0.01,Wunderground v.1.15,2013-02-26 04:45:00,
2013-02-25 22:51:00,35.2,29.6,29.98,ENE,67,8.0,8.0,80,0.00,,,0.01,Wunderground v.1.15,2013-02-26 04:51:00,
2013-02-25 22:56:00,35.2,29.6,29.97,ENE,78,9.0,9.0,80,0.00,,,0.01,Wunderground v.1.15,2013-02-26 04:56:00,
2013-02-25 23:01:00,35.2,29.6,29.97,ENE,59,9.0,9.0,80,0.00,,,0.01,Wunderground v.1.15,2013-02-26 05:01:00,
2013-02-25 23:04:00,35.2,29.6,29.96,ENE,67,8.0,9.0,80,0.00,,,0.01,Wunderground v.1.15,2013-02-26 05:04:00,
2013-02-25 23:06:00,35.2,29.6,29.96,ENE,66,8.0,8.0,80,0.00,,,0.01,Wunderground v.1.15,2013-02-26 05:06:00,
2013-02-25 23:11:00,35.2,29.6,29.95,ENE,67,9.0,13.0,80,0.00,,,0.01,Wunderground v.1.15,2013-02-26 05:11:00,
2013-02-25 23:16:00,35.3,29.7,29.95,ENE,72,10.0,10.0,80,0.00,,,0.01,Wunderground v.1.15,2013-02-26 05:16:00,
2013-02-25 23:22:00,35.2,29.6,29.95,ENE,71,10.0,11.0,80,0.00,,,0.01,Wunderground v.1.15,2013-02-26 05:22:00,
2013-02-25 23:28:00,35.3,30.1,29.95,East,79,10.0,11.0,81,0.00,,,0.01,Wunderground v.1.15,2013-02-26 05:28:00,
2013-02-25 23:34:00,35.3,30.1,29.94,ENE,57,10.0,11.0,81,0.00,,,0.01,Wunderground v.1.15,2013-02-26 05:34:00,
2013-02-25 23:41:00,35.3,30.1,29.94,ENE,62,10.0,10.0,81,0.00,,,0.01,Wunderground v.1.15,2013-02-26 05:41:00,
2013-02-25 23:46:00,35.4,30.1,29.93,ENE,67,9.0,10.0,81,0.00,,,0.01,Wunderground v.1.15,2013-02-26 05:46:00,
2013-02-25 23:52:00,35.5,30.2,29.93,ENE,72,9.0,11.0,81,0.00,,,0.01,Wunderground v.1.15,2013-02-26 05:52:00,
2013-02-25 23:58:00,35.5,29.9,29.93,NE,49,9.0,13.0,80,0.00,,,0.01,Wunderground v.1.15,2013-02-26 05:58:00,